This is the latest recevied weather packets stored in our database for station/object NI4CE-11. If no packets are shown the sender has not sent any weather packets the latest 10 day(s).
| Time | Temp. | Humidity | Pressure | Rain* | Wind** | Luminosity | Snow |
|---|---|---|---|---|---|---|---|
| 1787736567 | 25° C | 100% | 1015.8 hPa | 0 mm | - | - | - |
| 1787736267 | 26.11° C | 100% | 1015.9 hPa | 0 mm | - | - | - |
| 1787735967 | 25.56° C | 100% | 1015.9 hPa | 0 mm | - | - | - |
| 1787735801 | 25° C | 100% | 1015.8 hPa | 0 mm | - | - | - |
| 1787735667 | 25° C | 100% | 1015.8 hPa | 0 mm | - | - | - |
| 1787735447 | 25° C | 100% | 1015.8 hPa | 0 mm | - | - | - |
| 1787735367 | 25° C | 100% | 1015.8 hPa | 0 mm | - | - | - |
| 1787735068 | 23.89° C | 100% | 1015.8 hPa | 0 mm | - | - | - |
| 1787734767 | 25° C | 100% | 1015.6 hPa | 0 mm | - | - | - |
| 1787734539 | 26.11° C | 100% | 1015.6 hPa | 0 mm | - | - | - |
| 1787734467 | 26.11° C | 100% | 1015.6 hPa | 0 mm | - | - | - |
| 1787734239 | 25.56° C | 100% | 1015.7 hPa | 0 mm | - | - | - |
| 1787734168 | 25.56° C | 100% | 1015.7 hPa | 0 mm | - | - | - |
| 1787733868 | 26.11° C | 100% | 1015.7 hPa | 0 mm | - | - | - |
| 1787733656 | 26.11° C | 100% | 1015.8 hPa | 0 mm | - | - | - |
| 1787733568 | 26.11° C | 100% | 1015.8 hPa | 0 mm | - | - | - |
| 1787733268 | 26.67° C | 100% | 1015.7 hPa | 0 mm | - | - | - |
| 1787732968 | 26.11° C | 100% | 1015.8 hPa | 0 mm | - | - | - |
| 1787732668 | 26.11° C | 100% | 1016 hPa | 0 mm | - | - | - |
| 1787732368 | 26.11° C | 100% | 1016.1 hPa | 0 mm | - | - | - |
| 1787732068 | 26.67° C | 100% | 1016.1 hPa | 0 mm | - | - | - |
| 1787731853 | 26.67° C | 100% | 1016.1 hPa | 0 mm | - | - | - |
| 1787731768 | 26.67° C | 100% | 1016.1 hPa | 0 mm | - | - | - |
| 1787731468 | 26.67° C | 100% | 1016.2 hPa | 0 mm | - | - | - |
| 1787731292 | 26.11° C | 100% | 1016.4 hPa | 0 mm | - | - | - |
* Rain latest hour (hover to see other rain measurements)
** Current wind speed in m/s (hover to see current wind gust speed)